Wetbulb
35.32 30.15 28.27 31.68 32.15 31.82 30.92 28.90 27.84 30.21 33.73 31.87 28.86 28.41 30.23 31.25 30.85 29.03 29.31 29.03 29.51 30.51 32.41 33.21 33.33 32.75 32.25 32.45 32.45 33.13 33.72 34.97 36.16 35.99 35.61 36.03 35.88 37.71 39.49 42.56 44.45 45.56 46.52 47.53
31.36 27.94 34.51 35.60 34.74 33.28 31.30 29.08 28.14 32.08 34.64 33.32 28.56 28.07 29.27 31.12 29.50 29.25 28.99 28.40 28.91 29.57 30.51 31.94 31.86 31.29 30.88 31.36 32.07 32.37 33.49 35.30 35.73 35.87 36.64 36.91 36.92 38.33 39.38 41.60 44.07 46.12 46.62 47.87
29.83 34.30 37.58 35.22 32.95 32.22 30.87 28.99 29.35 30.78 32.30 30.57 29.33 26.99 28.01 31.14 31.11 31.43 30.52 29.87 29.63 28.80 28.67 29.58 30.17 29.62 29.91 30.55 31.26 32.82 33.98 34.44 34.83 35.76 36.18 37.13 37.93 38.32 38.97 39.78 41.95 44.45 46.07 47.25
32.07 36.28 35.63 33.70 32.28 33.45 28.04 34.55 34.40 32.04 29.41 24.63 30.37 21.94 27.07 28.79 29.05 29.74 29.38 27.66 27.96 28.57 28.73 28.72 28.74 28.45 29.06 30.71 33.09 33.37 34.04 33.98 34.96 35.07 34.93 35.53 35.20 35.30 37.82 39.94 41.95 44.09 46.41 47.29
32.18 33.32 33.25 31.76 33.22 35.70 32.04 36.42 33.83 32.69 28.86 26.37 26.47 24.01 23.78 29.35 27.50 28.18 27.87 28.11 27.77 28.07 27.45 26.95 27.54 28.20 29.80 31.79 31.73 32.84 33.31 33.45 34.09 34.40 34.82 34.54 34.86 36.57 37.71 39.51 41.43 43.77 45.86 47.54
32.59 36.23 35.30 34.67 37.29 36.95 37.57 34.61 33.59 31.00 27.55 20.83 27.63 26.47 29.91 25.39 27.89 27.80 29.00 28.96 29.17 27.42 26.97 27.26 27.98 28.66 30.58 31.62 31.95 32.56 32.52 32.67 33.33 33.38 33.70 34.26 34.33 34.75 35.54 37.29 39.25 41.21 43.66 45.97
32.49 33.33 35.70 37.19 32.44 35.64 34.52 30.11 24.26 21.64 20.30 21.52 29.61 26.24 28.35 28.13 29.11 29.54 28.16 27.75 28.50 27.04 26.07 25.64 25.99 27.72 29.95 30.05 30.86 32.06 31.78 31.34 32.46 32.97 33.08 34.50 34.27 34.36 34.92 35.97 36.49 38.32 40.19 42.45
24.30 23.83 32.90 36.59 33.65 31.72 32.09 32.15 24.71 19.92 20.73 22.62 29.86 23.19 26.06 30.24 30.42 30.64 29.93 29.23 29.50 26.26 25.25 24.96 25.83 28.00 29.05 28.24 29.17 31.14 31.25 31.13 31.68 32.11 32.80 34.40 34.42 33.63 34.48 34.10 34.36 35.61 37.10 38.57
24.35 26.13 36.00 37.56 38.08 36.79 31.73 28.17 35.25 29.00 29.34 25.26 25.34 24.60 29.96 29.34 28.66 27.95 28.01 28.35 23.07 22.43 23.45 24.56 25.31 25.59 26.55 27.12 27.66 30.63 30.72 30.68 31.53 31.75 31.82 32.94 33.11 32.89 32.40 32.87 33.33 34.10 35.24 37.16
30.61 24.37 33.92 36.76 39.62 37.74 35.99 37.45 29.11 29.97 22.51 19.86 20.71 22.86 23.77 27.16 28.03 27.12 20.47 19.21 24.86 22.83 21.90 23.72 23.72 23.97 25.54 25.69 27.49 28.68 29.68 29.23 30.41 31.69 32.20 32.23 32.05 31.62 31.79 31.19 31.00 32.07 32.98 34.21
32.77 28.73 29.47 34.29 32.60 31.95 33.31 31.20 33.33 32.92 29.41 21.66 13.79 19.93 27.73 27.54 31.11 25.33 21.83 22.18 20.75 21.21 17.28 17.38 21.71 22.45 22.42 23.68 25.95 27.11 28.11 27.57 28.40 30.13 31.77 30.58 31.22 30.27 30.11 29.12 29.59 30.62 31.51 32.09
33.79 27.81 21.51 28.62 35.72 38.94 36.65 33.92 34.03 28.14 27.35 28.98 21.99 23.49 28.65 29.96 29.92 27.04 25.37 27.21 25.73 20.62 18.35 15.63 16.02 18.11 21.34 22.58 23.81 25.88 27.08 27.22 27.73 29.14 29.65 29.32 30.16 28.73 27.30 27.01 27.31 29.23 30.16 30.79
35.39 27.20 23.08 25.84 29.86 34.77 33.13 35.59 35.48 35.54 33.10 28.08 23.04 20.08 30.42 29.99 28.07 27.88 26.79 27.66 25.38 23.74 22.11 16.61 18.21 17.80 19.32 20.44 22.69 24.60 25.69 26.32 27.44 27.94 27.78 27.52 27.49 27.29 25.47 25.32 25.82 26.41 28.26 29.43
39.94 31.47 28.16 21.64 24.44 31.44 29.54 32.04 35.10 33.95 28.92 28.44 27.11 26.18 28.11 27.96 27.63 26.90 27.38 25.85 22.19 21.91 24.52 22.36 18.48 19.11 17.91 18.46 21.45 23.13 24.83 25.40 25.71 25.38 25.82 25.51 25.25 26.54 25.66 24.73 24.85 25.20 26.56 27.93
35.35 27.59 27.99 31.16 33.77 33.59 31.52 31.57 32.17 31.06 31.08 28.43 29.40 27.66 29.29 29.25 28.12 27.39 27.71 24.42 24.50 24.29 25.00 24.86 23.72 22.97 22.00 20.90 23.38 25.69 27.04 26.04 25.56 24.15 24.17 24.59 24.66 24.90 25.03 24.35 24.11 24.47 25.02 26.11
36.21 26.35 30.23 21.80 32.04 33.35 30.20 32.48 31.85 32.07 32.35 31.60 30.60 27.86 29.78 29.72 30.01 27.37 26.75 25.51 25.20 24.17 24.92 25.38 25.27 24.96 25.17 25.57 24.80 26.25 26.48 25.58 25.40 23.68 23.20 24.19 23.93 23.73 23.28 22.58 22.90 23.38 23.15 23.86
34.02 31.96 29.76 26.81 31.43 31.93 27.89 29.90 30.47 31.40 32.73 31.93 27.52 30.51 27.48 27.61 27.56 26.93 25.67 26.33 25.55 24.09 25.08 25.33 25.03 24.52 25.06 24.72 25.83 25.25 25.68 25.80 24.42 23.66 23.51 23.46 23.19 22.39 21.77 22.09 22.11 21.58 21.55 22.41
34.52 31.99 31.13 28.04 28.95 20.10 27.87 33.32 32.41 30.95 32.75 32.25 29.33 26.78 27.72 27.40 26.34 26.83 26.44 26.06 25.58 24.71 25.17 25.43 21.68 22.69 24.41 24.70 24.96 26.16 26.22 26.00 24.25 23.50 23.16 23.17 22.88 21.86 21.63 20.91 20.20 20.82 20.92 21.18
36.24 34.00 29.68 26.63 25.51 27.03 30.38 31.49 30.03 28.71 29.43 32.27 29.55 27.36 26.43 26.41 26.53 25.11 27.32 26.73 25.25 24.89 25.93 25.30 24.06 21.61 23.63 24.54 25.15 25.32 24.67 25.72 24.95 23.28 22.83 23.06 22.65 21.85 21.38 20.34 19.70 20.00 20.44 20.59
36.11 35.62 31.46 28.14 23.24 20.23 29.56 32.46 34.82 32.87 24.00 30.23 29.54 27.09 26.11 27.04 23.42 22.19 27.13 27.58 26.93 26.47 26.32 24.40 23.52 23.14 24.46 24.57 25.17 24.60 23.72 23.43 23.47 25.01 24.63 23.61 22.86 21.65 20.57 20.69 19.99 20.14 19.95 20.12
31.04 32.03 28.26 27.63 26.74 29.25 33.19 33.34 34.71 23.93 23.95 29.91 29.66 27.86 26.71 25.78 25.46 24.92 27.31 26.37 27.18 26.89 24.02 24.37 22.57 20.53 21.32 24.14 25.49 23.40 23.28 20.88 24.50 25.53 25.18 24.75 24.07 21.84 21.20 20.76 20.66 19.63 18.73 18.22
29.03 28.00 25.83 27.56 26.89 23.59 33.32 32.32 28.13 29.59 30.23 30.44 28.97 28.25 27.87 26.99 26.83 27.13 26.69 26.13 25.64 23.85 23.80 23.35 22.09 20.50 21.46 22.88 23.37 21.98 21.96 24.46 24.77 24.63 24.23 24.03 24.12 23.42 21.97 18.32 19.79 19.49 18.47 16.59
28.41 31.21 28.64 29.56 27.90 32.46 32.00 30.82 32.07 32.89 30.86 29.51 28.32 28.88 28.14 26.50 26.32 26.43 25.85 25.29 24.61 23.93 23.44 23.31 21.78 21.11 21.72 21.92 22.45 20.96 22.14 24.68 24.47 23.76 23.05 23.31 23.60 23.69 23.34 20.52 17.45 17.53 18.20 16.69
33.03 34.58 29.27 28.96 29.42 29.72 31.55 31.74 32.26 32.29 31.12 30.39 29.57 28.68 27.91 25.85 26.11 25.22 25.61 24.72 23.79 22.84 21.96 22.51 21.76 20.56 20.28 21.93 22.74 22.18 23.52 24.05 23.62 22.49 22.48 22.25 21.96 21.45 21.48 21.82 20.90 17.10 15.81 16.33
32.81 33.29 29.46 27.47 28.55 30.67 32.04 32.34 31.64 30.46 31.30 30.50 29.61 28.53 27.09 26.29 25.48 26.01 26.08 25.74 23.83 22.40 22.16 22.49 21.57 20.75 19.85 21.08 21.13 22.19 22.60 23.87 22.59 22.45 22.26 21.66 21.22 20.19 19.41 19.63 19.14 21.33 17.53 18.83
32.29 29.97 26.47 24.87 30.31 30.14 29.46 31.76 31.56 29.95 29.34 29.34 28.44 27.39 28.31 27.90 26.53 27.09 25.56 25.29 23.43 22.11 22.05 21.85 21.49 20.51 19.56 20.30 20.32 21.15 22.30 22.62 22.47 21.44 21.28 21.07 20.14 19.13 18.81 17.66 16.59 22.17 21.43 22.24
MSLP
1017.19 1017.84 1017.65 1017.26 1017.62 1017.75 1017.92 1017.90 1017.61 1016.71 1016.13 1016.62 1017.69 1019.41 1021.24 1022.76 1023.80 1024.58 1025.15 1025.47 1025.53 1025.20 1025.23 1025.16 1024.92 1024.66 1024.35 1023.97 1023.44 1022.63 1021.88 1021.15 1020.37 1019.46 1018.72 1018.11 1017.64 1016.97 1016.09 1015.18 1014.36 1013.66 1013.09 1012.67
1017.70 1017.81 1017.06 1017.00 1017.18 1017.60 1017.99 1018.08 1017.77 1017.01 1016.35 1016.99 1018.17 1019.48 1021.02 1022.34 1023.54 1024.49 1025.21 1025.70 1025.82 1025.52 1025.38 1025.30 1025.05 1024.87 1024.53 1023.92 1023.24 1022.57 1022.05 1021.32 1020.57 1019.97 1019.42 1018.81 1017.67 1016.80 1015.85 1014.86 1013.90 1012.96 1012.31 1011.89
1016.98 1016.53 1016.52 1017.04 1017.39 1017.31 1017.32 1017.75 1017.53 1017.21 1016.77 1017.16 1018.31 1019.40 1020.81 1022.15 1023.34 1024.31 1025.12 1025.65 1025.89 1025.99 1025.84 1025.52 1025.23 1024.99 1024.51 1023.72 1023.03 1022.48 1022.01 1021.21 1020.42 1019.87 1019.16 1018.17 1017.22 1016.23 1015.40 1014.60 1013.64 1012.61 1011.64 1011.05
1016.74 1016.18 1016.22 1016.55 1016.86 1016.93 1016.79 1016.54 1016.67 1017.17 1017.62 1017.90 1018.09 1018.88 1020.12 1021.47 1022.95 1023.91 1024.74 1025.49 1025.85 1026.03 1026.18 1026.15 1025.93 1025.42 1024.56 1023.71 1023.02 1022.36 1021.73 1021.06 1020.53 1019.98 1019.11 1017.98 1016.96 1016.21 1015.56 1014.45 1013.22 1011.90 1011.00 1010.25
1016.19 1015.89 1015.84 1016.12 1016.05 1016.03 1016.20 1016.04 1016.16 1016.67 1017.42 1018.03 1018.51 1020.06 1019.21 1021.14 1022.49 1023.38 1024.53 1025.24 1025.89 1026.46 1026.82 1026.58 1026.03 1025.36 1024.62 1023.82 1022.92 1021.96 1021.47 1021.23 1020.66 1019.90 1018.97 1018.26 1017.57 1016.53 1015.37 1014.17 1012.82 1011.45 1010.36 1009.47
1016.16 1015.61 1015.66 1015.57 1015.32 1015.33 1015.69 1016.10 1016.51 1017.22 1017.93 1018.28 1018.41 1019.82 1018.16 1020.74 1021.49 1022.96 1024.30 1025.21 1025.90 1026.37 1026.46 1026.55 1026.14 1025.46 1024.54 1023.90 1023.17 1022.31 1021.80 1021.46 1020.82 1019.90 1019.66 1018.89 1017.80 1016.50 1015.24 1014.09 1012.88 1011.69 1010.41 1009.18
1016.35 1015.68 1015.19 1015.23 1015.09 1015.20 1015.66 1016.42 1017.19 1017.75 1018.36 1017.82 1017.86 1019.49 1018.56 1020.33 1021.58 1022.78 1024.20 1025.12 1025.81 1026.42 1026.56 1026.77 1026.42 1025.80 1024.77 1024.18 1023.71 1022.87 1022.47 1021.82 1021.02 1020.76 1020.08 1019.03 1017.97 1016.81 1015.53 1014.50 1013.41 1012.03 1010.66 1009.41
1016.69 1015.74 1014.80 1014.46 1014.50 1014.66 1014.93 1015.59 1016.46 1016.60 1017.39 1017.60 1017.90 1018.86 1019.04 1020.74 1022.12 1023.36 1024.41 1025.48 1025.83 1026.61 1026.97 1027.00 1026.64 1026.03 1025.26 1024.71 1024.12 1023.40 1022.84 1022.00 1021.80 1020.99 1020.23 1019.18 1018.19 1017.33 1016.33 1015.36 1014.12 1012.78 1011.51 1010.21
1016.70 1015.91 1014.81 1014.34 1014.19 1014.45 1014.51 1014.71 1014.87 1016.06 1017.13 1018.37 1018.37 1018.84 1019.61 1021.02 1022.40 1023.70 1024.75 1025.69 1026.30 1027.06 1027.15 1027.08 1026.86 1026.56 1025.85 1025.14 1024.57 1023.97 1023.32 1022.82 1022.22 1021.38 1020.50 1019.43 1018.64 1017.90 1017.01 1015.89 1014.73 1013.43 1012.06 1010.72
1016.06 1016.07 1014.99 1014.33 1013.79 1013.54 1013.73 1014.29 1015.30 1016.79 1017.78 1018.31 1018.38 1019.37 1019.56 1020.85 1022.06 1023.59 1024.92 1025.84 1026.67 1027.15 1027.40 1027.55 1027.34 1027.06 1026.12 1025.57 1025.19 1024.47 1023.78 1023.45 1022.72 1021.93 1020.98 1020.00 1019.26 1018.46 1017.41 1016.86 1015.66 1014.50 1013.10 1011.63
1016.11 1016.40 1015.50 1014.92 1014.54 1014.45 1014.52 1014.66 1015.37 1016.92 1017.61 1018.08 1018.94 1018.76 1018.84 1019.87 1021.01 1022.89 1024.56 1025.74 1026.57 1027.52 1027.84 1028.05 1027.65 1027.14 1026.40 1025.86 1025.37 1024.90 1024.24 1023.86 1023.11 1022.40 1021.71 1020.97 1020.25 1019.48 1018.84 1017.93 1016.71 1015.24 1013.94 1012.51
1015.99 1016.47 1016.39 1015.47 1014.72 1014.33 1014.60 1015.31 1016.15 1017.02 1017.65 1018.13 1019.02 1018.63 1019.31 1020.05 1021.00 1022.52 1024.28 1025.44 1026.43 1027.30 1027.93 1027.95 1027.64 1027.21 1026.77 1025.97 1025.91 1025.10 1024.82 1024.45 1023.82 1023.15 1022.51 1022.02 1021.44 1020.69 1019.86 1018.69 1018.10 1016.33 1015.00 1014.25
1015.73 1016.37 1016.71 1015.96 1015.56 1015.01 1015.11 1015.48 1015.93 1016.93 1017.82 1018.02 1019.19 1018.91 1019.66 1020.65 1021.82 1022.87 1023.95 1025.16 1026.22 1027.06 1027.61 1027.65 1027.38 1027.32 1026.36 1027.02 1026.31 1025.59 1025.33 1025.08 1024.35 1023.60 1023.35 1023.01 1022.36 1021.50 1020.91 1019.98 1018.76 1017.42 1016.46 1015.68
1015.30 1016.14 1016.64 1016.81 1016.42 1016.21 1016.11 1016.22 1016.41 1017.05 1017.66 1017.65 1018.20 1018.59 1019.45 1020.56 1021.61 1022.85 1023.91 1024.82 1025.80 1026.65 1026.97 1027.22 1027.36 1026.99 1027.02 1027.32 1026.47 1025.87 1025.81 1025.58 1024.93 1024.50 1024.21 1023.77 1023.14 1022.74 1022.10 1021.17 1020.13 1019.41 1018.87 1018.13
1016.07 1016.49 1016.85 1016.66 1016.47 1016.33 1016.28 1016.52 1016.95 1017.32 1017.21 1017.86 1017.76 1018.34 1018.25 1019.42 1020.73 1021.85 1023.33 1024.45 1025.43 1026.18 1026.46 1026.70 1027.01 1026.80 1027.61 1027.40 1026.64 1026.30 1026.12 1025.93 1025.60 1025.39 1024.91 1024.63 1024.37 1023.76 1023.14 1022.67 1021.99 1021.43 1020.80 1019.95
1016.43 1016.76 1017.18 1017.23 1016.60 1016.65 1016.59 1016.32 1016.76 1016.81 1016.96 1017.16 1017.49 1018.20 1018.49 1019.20 1020.58 1021.96 1022.96 1023.97 1025.07 1025.64 1025.84 1026.32 1026.49 1026.89 1027.65 1027.38 1026.81 1026.63 1026.56 1026.42 1026.26 1026.17 1025.68 1025.59 1025.12 1025.02 1024.36 1024.08 1023.51 1022.75 1022.16 1021.58
1016.80 1016.85 1017.34 1016.80 1016.36 1016.50 1016.30 1015.46 1015.62 1015.59 1015.58 1015.76 1017.04 1017.41 1018.57 1019.93 1020.68 1021.57 1022.75 1023.74 1024.63 1025.14 1025.57 1026.12 1026.49 1027.07 1027.51 1027.39 1026.93 1026.91 1026.98 1026.91 1026.84 1026.84 1026.56 1026.30 1025.97 1025.81 1025.37 1025.08 1024.57 1024.18 1023.52 1023.34
1016.27 1016.76 1017.04 1016.76 1016.59 1015.82 1014.52 1014.48 1014.70 1014.91 1014.97 1015.52 1016.50 1017.59 1018.58 1019.59 1020.69 1021.72 1022.54 1023.40 1024.21 1024.84 1025.58 1026.31 1026.76 1027.43 1027.55 1027.35 1027.20 1027.04 1027.23 1027.30 1027.40 1027.27 1027.21 1027.02 1026.74 1026.60 1026.44 1026.03 1025.84 1025.51 1025.19 1024.58
1015.03 1015.95 1016.49 1016.16 1015.71 1014.77 1014.08 1014.07 1014.54 1014.75 1014.53 1014.83 1016.28 1017.95 1019.39 1020.41 1021.43 1022.36 1022.70 1023.23 1023.84 1024.60 1025.47 1026.20 1026.92 1027.55 1027.69 1027.52 1027.46 1027.46 1027.56 1027.76 1027.77 1027.90 1027.90 1027.77 1027.52 1027.32 1027.24 1026.62 1026.55 1026.36 1025.91 1025.67
1014.51 1015.00 1016.02 1015.86 1015.39 1014.53 1013.64 1013.61 1013.96 1014.55 1015.16 1015.40 1016.37 1018.10 1019.40 1020.56 1021.53 1021.74 1022.44 1023.05 1023.88 1024.66 1025.37 1026.21 1027.02 1027.64 1027.73 1027.84 1027.76 1027.87 1028.02 1028.02 1028.02 1028.25 1028.40 1028.60 1028.57 1028.21 1028.24 1027.87 1027.56 1027.33 1026.79 1026.59
1014.48 1014.92 1015.08 1015.10 1015.04 1014.39 1013.51 1013.77 1014.32 1015.23 1015.90 1015.96 1016.81 1017.99 1019.24 1020.13 1020.63 1020.76 1021.96 1023.10 1023.94 1024.68 1025.45 1026.41 1027.17 1027.70 1027.97 1028.06 1028.04 1028.35 1028.53 1028.53 1028.56 1028.62 1028.68 1028.77 1028.86 1028.95 1028.94 1028.86 1028.63 1028.51 1028.31 1028.02
1013.81 1014.41 1014.73 1014.87 1014.90 1014.32 1013.48 1014.42 1014.79 1014.99 1015.67 1016.28 1017.17 1018.14 1019.29 1020.16 1020.73 1021.43 1022.35 1023.33 1024.11 1024.85 1025.75 1026.57 1027.25 1027.85 1028.19 1028.31 1028.34 1028.69 1028.92 1029.05 1028.98 1028.99 1029.03 1029.19 1029.33 1029.33 1029.45 1029.51 1029.44 1029.28 1029.11 1029.02
1013.33 1013.27 1013.89 1014.38 1014.19 1013.88 1014.26 1014.31 1014.63 1014.98 1015.76 1016.54 1017.32 1018.34 1019.29 1020.26 1021.17 1021.94 1022.74 1023.50 1024.25 1024.99 1025.83 1026.64 1027.28 1027.96 1028.40 1028.59 1028.64 1028.94 1029.22 1029.21 1029.25 1029.33 1029.52 1029.62 1029.80 1029.81 1029.77 1029.80 1029.77 1029.60 1029.39 1029.34
1013.07 1013.21 1013.71 1014.43 1014.33 1014.38 1014.57 1014.89 1015.06 1015.44 1016.02 1016.72 1017.41 1018.31 1019.27 1020.22 1021.26 1022.06 1022.79 1023.53 1024.30 1025.11 1025.94 1026.71 1027.40 1028.03 1028.54 1028.84 1028.97 1029.07 1029.17 1029.32 1029.46 1029.61 1029.82 1030.00 1030.05 1030.24 1030.25 1030.11 1029.93 1029.93 1029.92 1029.81
1013.10 1013.51 1014.11 1014.46 1014.66 1014.93 1014.96 1015.15 1015.52 1016.16 1016.56 1017.15 1017.91 1018.56 1019.32 1020.17 1021.24 1021.80 1022.63 1023.42 1024.32 1025.18 1026.02 1026.71 1027.42 1028.16 1028.76 1029.14 1029.35 1029.35 1029.38 1029.41 1029.55 1029.80 1030.06 1030.27 1030.49 1030.60 1030.65 1030.49 1030.02 1030.08 1030.51 1030.12
1012.97 1013.36 1014.07 1014.20 1014.01 1014.60 1014.97 1015.27 1015.87 1016.55 1017.13 1017.60 1018.15 1019.11 1019.77 1020.25 1021.04 1021.88 1022.73 1023.51 1024.39 1025.25 1026.05 1026.80 1027.47 1028.20 1028.91 1029.32 1029.56 1029.65 1029.62 1029.65 1029.78 1030.00 1030.33 1030.56 1030.75 1030.91 1030.92 1030.89 1030.83 1030.49 1030.41 1030.24
Wind_Speed
3 3 6 10 7 2 2 3 4 6 6 2 2 4 6 3 4 4 5 6 6 7 6 6 8 8 9 9 10 13 14 14 12 10 12 11 12 12 11 10 15 15 13 12
2 6 11 2 5 4 3 4 6 8 6 6 5 6 3 4 2 2 3 5 6 7 9 9 10 10 10 10 12 13 14 15 12 9 10 11 12 10 12 12 13 13 15 12
8 5 4 5 3 5 5 5 5 7 3 2 4 5 6 2 3 4 3 2 4 6 10 11 13 12 10 12 13 15 16 16 15 17 11 9 10 10 9 11 11 12 16 14
7 7 10 6 5 7 6 9 12 7 2 5 3 9 4 6 5 4 2 4 6 8 8 9 11 11 12 13 13 14 15 17 16 18 14 17 12 13 11 11 12 13 15 15
8 2 3 4 6 7 6 5 9 8 5 0 3 1 1 6 7 7 4 3 4 5 6 8 9 10 11 14 14 15 18 18 18 16 16 13 14 12 11 11 15 14 14 15
6 2 4 6 4 3 3 1 5 4 4 5 7 6 13 6 5 5 4 3 3 5 6 8 8 10 13 14 14 14 16 16 17 17 17 16 17 16 13 13 11 10 10 11
8 14 9 6 6 7 5 5 2 2 0 8 7 7 10 4 3 4 6 4 4 5 6 7 10 12 12 13 14 13 15 15 17 16 17 16 15 16 15 13 10 13 10 9
3 7 5 2 12 7 8 10 6 6 5 4 4 7 7 3 6 6 6 5 5 5 4 6 8 10 10 12 12 14 14 16 17 17 17 15 15 10 10 12 12 9 9 11
4 6 3 3 3 7 3 6 13 6 3 2 4 6 2 6 6 6 6 4 2 2 5 7 8 7 9 10 12 13 13 14 16 18 17 16 16 15 14 15 13 11 13 12
4 6 6 6 2 4 8 4 3 4 5 6 4 5 7 9 12 8 4 4 3 2 6 6 6 7 7 7 8 10 11 12 13 16 16 15 17 17 15 15 17 17 16 18
5 5 5 5 1 2 5 3 4 2 3 3 1 7 2 4 10 11 7 6 4 2 2 4 5 6 6 6 8 9 11 12 12 14 15 16 16 18 14 14 16 17 18 21
6 3 2 11 5 6 6 7 2 3 3 3 4 10 3 1 6 9 8 6 6 3 1 2 4 4 6 9 8 9 9 10 11 12 13 16 14 16 16 16 17 17 19 21
6 2 3 7 5 4 4 4 5 4 2 7 2 7 2 5 5 5 9 6 5 3 1 3 6 5 8 7 6 8 9 10 11 12 13 14 15 16 17 17 19 21 21 21
8 6 7 8 6 4 2 4 2 6 5 2 9 8 6 8 10 7 7 7 6 4 3 3 3 5 7 6 6 6 8 9 10 11 12 14 16 15 16 17 19 20 19 18
1 7 3 4 5 3 5 4 6 9 8 8 4 7 3 13 14 13 8 8 7 6 4 5 4 7 5 5 6 7 9 10 10 10 12 13 13 14 15 17 17 16 17 16
0 5 1 4 4 7 10 9 13 13 9 10 13 14 2 3 10 10 10 10 8 7 7 5 6 7 4 4 6 8 8 10 10 11 12 11 12 13 14 14 15 16 17 17
3 3 2 5 4 6 9 16 17 8 7 6 9 4 6 6 11 13 11 10 9 7 7 6 6 5 3 4 5 7 7 8 10 10 11 12 12 13 13 13 15 15 16 15
6 4 2 2 1 5 6 1 3 11 10 8 3 4 5 5 5 6 7 10 10 9 8 6 5 3 2 3 5 6 6 9 10 11 11 11 11 12 12 13 14 14 13 15
6 5 3 3 4 5 6 4 5 5 6 8 7 8 5 9 5 1 6 5 7 8 8 6 5 2 3 5 5 6 6 6 9 10 11 11 11 12 12 14 13 12 12 13
9 8 5 3 3 3 3 2 4 3 5 2 8 12 14 10 5 4 11 9 10 10 8 8 6 5 5 4 5 7 6 6 8 7 8 9 10 11 11 11 12 11 11 13
5 3 11 5 3 5 4 4 4 3 6 4 7 12 15 6 3 4 13 8 9 10 10 9 6 6 5 4 6 7 6 6 6 7 8 8 7 10 9 9 8 8 9 9
8 4 3 3 6 8 6 4 6 3 2 5 5 7 11 6 8 13 12 12 12 12 11 9 8 6 4 4 7 6 6 4 6 6 7 7 7 8 7 6 6 7 7 8
4 6 5 7 5 1 3 1 2 3 4 4 6 8 9 11 11 13 13 13 12 12 9 8 8 7 5 4 5 7 3 5 6 7 6 6 6 6 5 4 4 6 8 9
1 2 3 2 3 3 2 2 2 2 3 5 5 12 11 10 14 13 11 12 10 10 9 8 8 7 6 4 6 4 5 4 5 6 6 5 4 5 5 4 4 4 4 7
3 4 4 3 3 2 5 3 5 3 5 8 9 7 9 15 13 14 12 11 10 9 8 8 7 7 6 5 4 4 4 4 6 5 5 4 5 4 4 5 5 4 2 5
4 6 5 6 4 3 2 6 6 6 5 8 10 8 10 12 14 12 10 9 9 10 9 7 8 8 6 5 5 3 3 3 4 5 4 3 3 3 4 3 4 13 10 14
Wind_Direction
2 83 203 222 197 120 99 284 284 273 263 320 269 190 184 143 81 50 29 18 7 11 347 342 346 346 345 344 343 348 347 348 347 340 337 332 324 319 311 306 305 299 289 284
37 236 238 138 178 205 230 256 266 285 261 188 170 229 200 214 157 121 58 21 1 358 357 355 353 351 349 341 354 353 351 345 340 333 326 318 319 311 308 304 297 296 294 282
191 197 98 175 205 203 222 208 234 234 316 61 149 253 204 186 138 151 89 45 12 2 349 349 349 350 341 354 356 352 347 346 346 343 328 318 314 318 314 314 303 293 290 280
246 248 246 252 219 186 250 208 233 223 164 242 153 279 224 183 180 188 139 29 14 7 352 339 339 340 351 353 353 352 352 350 348 344 333 335 328 319 311 301 299 294 289 281
236 237 193 184 221 175 232 244 206 202 200 69 195 264 205 129 220 201 150 73 39 11 335 329 335 342 347 353 353 357 357 352 348 345 345 339 325 316 316 307 303 292 287 280
245 10 177 211 243 176 7 355 39 52 91 262 179 177 273 186 207 136 147 105 69 9 348 340 340 352 1 357 355 356 356 351 349 353 342 334 332 328 325 317 321 318 306 300
261 258 253 196 270 285 167 94 297 283 125 245 186 197 260 179 167 142 151 151 93 21 2 340 351 359 358 355 353 357 355 351 355 348 346 339 337 333 330 337 330 324 323 319
213 317 191 191 209 210 199 188 190 233 212 263 120 223 257 136 126 120 129 127 93 32 2 348 356 359 350 350 353 359 357 358 355 354 349 345 348 344 342 342 337 334 329 327
193 259 294 175 198 145 255 195 231 251 6 311 247 298 306 142 156 156 156 123 108 32 4 0 350 337 339 350 352 354 354 0 357 359 357 358 1 353 352 353 353 347 346 346
240 294 251 274 285 283 203 171 97 78 224 225 259 268 241 218 207 177 168 177 126 80 17 353 343 326 343 345 341 350 356 355 355 358 2 359 5 360 3 359 5 2 3 4
166 166 250 20 85 127 3 359 98 312 242 232 247 258 217 232 190 176 177 181 141 118 321 320 334 328 340 341 354 354 2 358 0 2 4 4 9 8 5 8 8 12 16 15
220 157 192 248 227 243 180 176 114 199 213 241 155 260 348 100 130 144 162 157 124 147 244 321 316 327 356 9 340 7 360 1 4 11 11 11 13 10 8 14 8 12 25 24
187 236 326 322 345 346 204 194 147 155 267 213 211 261 108 101 113 143 147 139 127 114 68 13 16 350 26 346 345 12 10 1 8 19 16 16 14 19 15 14 17 16 20 24
168 188 183 236 214 185 290 15 290 200 252 247 240 271 200 198 186 170 161 141 133 138 104 82 18 21 22 329 342 15 18 5 14 21 20 21 20 15 20 17 20 20 19 23
192 219 211 244 200 174 206 217 230 218 240 243 314 242 205 202 198 172 159 143 145 148 127 89 69 52 8 345 4 23 30 21 18 23 29 25 26 19 23 25 21 22 24 21
299 241 155 278 240 253 259 242 243 229 230 238 240 252 228 109 132 153 160 156 162 159 135 118 84 68 19 22 39 35 29 29 27 29 33 28 33 31 32 25 29 27 28 27
235 145 137 255 212 233 247 232 216 214 217 187 208 222 152 153 167 170 163 163 164 152 144 128 103 92 70 41 58 52 36 37 39 38 36 35 33 35 34 33 34 34 30 27
149 144 167 254 176 238 246 249 206 221 245 202 155 171 156 155 110 135 154 158 151 139 133 125 106 103 58 70 60 64 50 53 45 44 36 39 40 40 35 38 37 35 36 34
180 136 238 244 210 291 266 192 183 176 284 208 162 124 107 111 89 84 159 148 140 137 134 120 120 138 103 79 77 71 56 58 60 49 42 33 37 41 34 40 33 32 38 41
195 163 201 184 219 250 259 185 150 132 295 128 134 153 153 151 168 223 166 138 134 132 128 123 114 117 96 74 81 77 62 54 58 45 53 50 42 44 35 34 35 30 36 38
163 190 223 207 251 271 233 156 142 86 243 162 156 160 162 175 197 158 136 121 128 135 124 121 111 108 107 100 95 80 70 53 61 67 59 48 51 52 36 37 39 38 38 38
177 172 207 162 222 247 145 94 174 190 56 144 134 154 155 113 110 133 129 131 134 130 126 126 119 103 93 98 103 92 81 75 72 61 56 50 45 52 42 29 35 41 47 49
181 182 185 184 213 157 291 51 78 130 148 172 133 147 132 128 137 140 139 142 142 136 133 128 124 117 91 86 101 103 84 98 93 80 62 53 49 48 55 45 42 46 44 46
202 146 148 104 226 235 219 96 89 112 153 131 130 143 138 135 144 140 140 144 142 138 137 134 130 128 119 99 106 111 116 98 92 88 82 69 63 51 44 41 73 49 35 42
180 133 150 287 285 279 246 206 145 101 104 109 118 137 138 139 147 147 149 150 145 139 137 140 138 139 132 127 103 91 104 112 104 93 85 74 73 63 48 49 36 63 291 73
187 161 163 221 202 147 199 160 137 132 136 137 133 125 139 144 146 147 144 145 145 143 143 139 141 140 139 127 111 85 68 111 123 121 108 97 83 58 59 48 44 39 56 49